DECAYED

FREGAT DEB, 45631 (Decayed)

Orbit data source: Space-Track

FREGAT DEB, 45631 was space debris in LEO originally from a launch on Mon, 18 Jul 2011 UTC launched from the Tyuratam Missile And Space Complex (TTMTR). Debris objects in space refer to the collection of defunct objects orbiting the Earth. Examples of debris include non-operational satellites, rocket bodies, and fragments generated from explosions, collisions, or faulty payload assembly.

Not visible in the next 10 days
Identifier
45631, 2011-037X
Orbit
Decayed
Country
Flag of CISCIS
Related business
Manufacturer
Lavochkin
Mission
Decayed spacecraft
Bus & Motor
Unknown
Mass
Unknown
Launch date (UTC)
2011-07-18 (15 years ago)
Launch vehicle
Unknown
Launch site
Tyuratam Missile And Space Complex (TTMTR)
Object type
Payload
Rocket body
Debris
Shape & HBR
Unknown shape, 0.1 m
Radar Cross Section
Small (<0.1 m²)

Expand to show TLE details & history
Last TLE update: 1 year ago

TLE from 1 year ago
0 FREGAT DEB
1 45631U 11037X   25073.65735643  .14050424  00000-0  94464-1 0  9995
2 45631  51.2940  52.6090 0049684 217.1297 142.6254 15.66899278209482
Epoch: 2025-03-14T15:46Z
TLE epoch observation values (Epoch: 2025-03-14T15:46:35.595Z)
Latitude
-0.00003°
Longitude
3.44656°
Altitude
395.185 km
Speed
7.659 km/s
True Right ascension
03h 30m 26s
True Declination
0° 00' 00"
Sunlit
Object was in daylight at epoch
Visualization orbit readout
Latitude
Unknown
Longitude
Unknown
Altitude
Unknown
Speed
Unknown
Apparent Right ascension
Unknown
Apparent Declination
Unknown
Sunlit
N/A
Visualization observer readout
Local Sidereal Time
08:01:25
Azimuth
Unknown
Elevation
Unknown
Doppler factor
Unknown
Orbital elements
Apogee altitude
401.87 km
Perigee altitude
334.832 km
Semi-major axis
6,746.488 km
Eccentricity
0.00497
Inclination
51.294°
RAAN
52.609°
Arg. of periapsis
217.1297°
True anomaly
142.9693°
Mean anomaly
142.6254°
Eccentric anomaly
142.79752°
Mean motion
3.91676 °/min
Orbital period
91.91 mins
BSTAR
0.094464
Loading maneuver chart data...
Computing Atmospheric mass density...
Loading historical data...
Loading historical data...
Loading historical data...
Loading historical data...
Loading historical data...
Loading historical data...
Loading historical data...

Documentation

Showing up to 5 results
|